Time,TemperatureF,DewpointF,PressureIn,WindDirection,WindDirectionDegrees,WindSpeedMPH,WindSpeedGustMPH,Humidity,HourlyPrecipIn,Conditions,Clouds,dailyrainin,SolarRadiationWatts/m^2,SoftwareType,DateUTC
2013-01-04 00:03:00,9.7,-0.3,30.82,East,92,4.0,4.0,63,0.00,,,0.00,32767.00,ALWS 1.0-beta,2013-01-04 07:03:00,
2013-01-04 00:08:00,9.7,-0.3,30.82,East,92,2.0,3.0,63,0.00,,,0.00,32767.00,ALWS 1.0-beta,2013-01-04 07:08:00,
2013-01-04 00:13:00,9.6,-0.8,30.81,East,92,2.0,3.0,62,0.00,,,0.00,32767.00,ALWS 1.0-beta,2013-01-04 07:13:00,
2013-01-04 00:18:00,9.8,-0.6,30.81,East,94,2.0,3.0,62,0.00,,,0.00,32767.00,ALWS 1.0-beta,2013-01-04 07:18:00,
2013-01-04 00:23:00,10.0,-0.4,30.81,East,94,3.0,3.0,62,0.00,,,0.00,32767.00,ALWS 1.0-beta,2013-01-04 07:23:00,
2013-01-04 00:28:00,10.2,-0.2,30.81,East,94,0.0,3.0,62,0.00,,,0.00,32767.00,ALWS 1.0-beta,2013-01-04 07:28:00,
2013-01-04 00:33:00,10.1,-0.7,30.81,East,94,0.0,0.0,61,0.00,,,0.00,32767.00,ALWS 1.0-beta,2013-01-04 07:33:00,
2013-01-04 00:38:00,9.8,-0.6,30.81,East,94,0.0,0.0,62,0.00,,,0.00,32767.00,ALWS 1.0-beta,2013-01-04 07:38:00,
2013-01-04 00:43:00,9.4,-0.6,30.81,East,94,0.0,0.0,63,0.00,,,0.00,32767.00,ALWS 1.0-beta,2013-01-04 07:43:00,
2013-01-04 00:48:00,8.6,-1.4,30.80,East,94,0.0,0.0,63,0.00,,,0.00,32767.00,ALWS 1.0-beta,2013-01-04 07:48:00,
2013-01-04 00:53:00,8.3,-1.0,30.80,East,94,0.0,0.0,65,0.00,,,0.00,32767.00,ALWS 1.0-beta,2013-01-04 07:53:00,
2013-01-04 00:58:00,8.5,-0.8,30.80,East,94,0.0,0.0,65,0.00,,,0.00,32767.00,ALWS 1.0-beta,2013-01-04 07:58:00,
2013-01-04 01:03:00,8.3,-1.0,30.80,East,94,0.0,0.0,65,0.00,,,0.00,32767.00,ALWS 1.0-beta,2013-01-04 08:03:00,
2013-01-04 01:08:00,8.5,-0.8,30.80,East,94,0.0,0.0,65,0.00,,,0.00,32767.00,ALWS 1.0-beta,2013-01-04 08:08:00,
2013-01-04 01:13:00,8.2,-1.5,30.80,East,94,0.0,1.0,64,0.00,,,0.00,32767.00,ALWS 1.0-beta,2013-01-04 08:13:00,
2013-01-04 01:18:00,8.0,-1.6,30.80,East,94,0.0,0.0,64,0.00,,,0.00,32767.00,ALWS 1.0-beta,2013-01-04 08:18:00,
2013-01-04 01:23:00,7.7,-2.3,30.80,East,94,0.0,0.0,63,0.00,,,0.00,32767.00,ALWS 1.0-beta,2013-01-04 08:23:00,
2013-01-04 01:28:00,7.4,-2.5,30.80,East,94,0.0,0.0,63,0.00,,,0.00,32767.00,ALWS 1.0-beta,2013-01-04 08:28:00,
2013-01-04 01:33:00,7.3,-2.3,30.80,East,94,0.0,0.0,64,0.00,,,0.00,32767.00,ALWS 1.0-beta,2013-01-04 08:33:00,
2013-01-04 01:38:00,7.8,-1.5,30.80,East,94,2.0,2.0,65,0.00,,,0.00,32767.00,ALWS 1.0-beta,2013-01-04 08:38:00,
2013-01-04 01:43:00,8.4,-1.6,30.80,East,94,1.0,1.0,63,0.00,,,0.00,32767.00,ALWS 1.0-beta,2013-01-04 08:43:00,
2013-01-04 01:48:00,8.0,-2.0,30.80,East,94,0.0,2.0,63,0.00,,,0.00,32767.00,ALWS 1.0-beta,2013-01-04 08:48:00,
2013-01-04 01:53:00,8.0,-2.0,30.80,East,94,0.0,2.0,63,0.00,,,0.00,32767.00,ALWS 1.0-beta,2013-01-04 08:53:00,
2013-01-04 01:58:00,8.2,-1.8,30.79,East,94,0.0,2.0,63,0.00,,,0.00,32767.00,ALWS 1.0-beta,2013-01-04 08:58:00,
2013-01-04 02:03:00,8.4,-1.6,30.80,East,94,2.0,2.0,63,0.00,,,0.00,32767.00,ALWS 1.0-beta,2013-01-04 09:03:00,
2013-01-04 02:08:00,8.7,-1.6,30.80,East,94,2.0,3.0,62,0.00,,,0.00,32767.00,ALWS 1.0-beta,2013-01-04 09:08:00,
2013-01-04 02:13:00,8.2,-2.1,30.80,East,94,0.0,1.0,62,0.00,,,0.00,32767.00,ALWS 1.0-beta,2013-01-04 09:13:00,
2013-01-04 02:18:00,8.5,-1.5,30.80,ESE,105,1.0,2.0,63,0.00,,,0.00,32767.00,ALWS 1.0-beta,2013-01-04 09:18:00,
2013-01-04 02:23:00,8.2,-2.1,30.80,East,96,3.0,3.0,62,0.00,,,0.00,32767.00,ALWS 1.0-beta,2013-01-04 09:23:00,
2013-01-04 02:28:00,7.3,-3.3,30.80,East,95,2.0,2.0,61,0.00,,,0.00,32767.00,ALWS 1.0-beta,2013-01-04 09:28:00,
2013-01-04 02:33:00,6.9,-3.3,30.80,East,95,2.0,3.0,62,0.00,,,0.00,32767.00,ALWS 1.0-beta,2013-01-04 09:33:00,
2013-01-04 02:38:00,7.2,-2.7,30.80,East,95,0.0,0.0,63,0.00,,,0.00,32767.00,ALWS 1.0-beta,2013-01-04 09:38:00,
2013-01-04 02:43:00,6.9,-3.0,30.80,East,95,2.0,2.0,63,0.00,,,0.00,32767.00,ALWS 1.0-beta,2013-01-04 09:43:00,
2013-01-04 02:48:00,7.2,-2.4,30.80,East,96,4.0,4.0,64,0.00,,,0.00,32767.00,ALWS 1.0-beta,2013-01-04 09:48:00,
2013-01-04 02:53:00,6.9,-2.7,30.80,East,95,0.0,0.0,64,0.00,,,0.00,32767.00,ALWS 1.0-beta,2013-01-04 09:53:00,
2013-01-04 02:58:00,7.0,-2.6,30.80,East,95,3.0,4.0,64,0.00,,,0.00,32767.00,ALWS 1.0-beta,2013-01-04 09:58:00,
2013-01-04 03:03:00,7.2,-2.4,30.80,East,95,0.0,2.0,64,0.00,,,0.00,32767.00,ALWS 1.0-beta,2013-01-04 10:03:00,
2013-01-04 03:08:00,7.0,-2.9,30.80,East,96,0.0,0.0,63,0.00,,,0.00,32767.00,ALWS 1.0-beta,2013-01-04 10:08:00,
2013-01-04 03:13:00,6.4,-3.5,30.80,East,95,2.0,2.0,63,0.00,,,0.00,32767.00,ALWS 1.0-beta,2013-01-04 10:13:00,
2013-01-04 03:18:00,6.8,-2.8,30.80,East,95,0.0,0.0,64,0.00,,,0.00,32767.00,ALWS 1.0-beta,2013-01-04 10:18:00,
2013-01-04 03:23:00,7.1,-2.8,30.79,East,95,0.0,0.0,63,0.00,,,0.00,32767.00,ALWS 1.0-beta,2013-01-04 10:23:00,
2013-01-04 03:28:00,7.1,-2.8,30.80,East,95,0.0,0.0,63,0.00,,,0.00,32767.00,ALWS 1.0-beta,2013-01-04 10:28:00,
2013-01-04 03:33:00,6.9,-3.0,30.79,East,95,0.0,0.0,63,0.00,,,0.00,32767.00,ALWS 1.0-beta,2013-01-04 10:33:00,
2013-01-04 03:38:00,6.8,-3.1,30.79,East,95,0.0,0.0,63,0.00,,,0.00,32767.00,ALWS 1.0-beta,2013-01-04 10:38:00,
2013-01-04 03:43:00,6.7,-3.2,30.79,East,95,0.0,0.0,63,0.00,,,0.00,32767.00,ALWS 1.0-beta,2013-01-04 10:43:00,
2013-01-04 03:48:00,6.8,-2.8,30.79,East,95,0.0,0.0,64,0.00,,,0.00,32767.00,ALWS 1.0-beta,2013-01-04 10:48:00,
2013-01-04 03:53:00,6.7,-3.2,30.79,East,95,0.0,0.0,63,0.00,,,0.00,32767.00,ALWS 1.0-beta,2013-01-04 10:53:00,
2013-01-04 03:58:00,6.5,-3.1,30.79,East,95,0.0,0.0,64,0.00,,,0.00,32767.00,ALWS 1.0-beta,2013-01-04 10:58:00,
2013-01-04 04:03:00,6.6,-3.0,30.79,East,95,0.0,0.0,64,0.00,,,0.00,32767.00,ALWS 1.0-beta,2013-01-04 11:03:00,
2013-01-04 04:08:00,6.8,-2.5,30.79,East,95,0.0,0.0,65,0.00,,,0.00,32767.00,ALWS 1.0-beta,2013-01-04 11:08:00,
2013-01-04 04:13:00,6.9,-2.4,30.79,East,95,0.0,0.0,65,0.00,,,0.00,32767.00,ALWS 1.0-beta,2013-01-04 11:13:00,
2013-01-04 04:18:00,6.5,-3.1,30.79,East,95,0.0,0.0,64,0.00,,,0.00,32767.00,ALWS 1.0-beta,2013-01-04 11:18:00,
2013-01-04 04:23:00,6.1,-3.5,30.79,East,95,0.0,0.0,64,0.00,,,0.00,32767.00,ALWS 1.0-beta,2013-01-04 11:23:00,
2013-01-04 04:28:00,5.8,-3.4,30.78,East,95,1.0,2.0,65,0.00,,,0.00,32767.00,ALWS 1.0-beta,2013-01-04 11:28:00,
2013-01-04 04:33:00,6.1,-3.1,30.78,East,95,0.0,2.0,65,0.00,,,0.00,32767.00,ALWS 1.0-beta,2013-01-04 11:33:00,
2013-01-04 04:38:00,5.5,-4.0,30.78,East,95,0.0,0.0,64,0.00,,,0.00,32767.00,ALWS 1.0-beta,2013-01-04 11:38:00,
2013-01-04 04:43:00,5.0,-4.2,30.78,East,95,0.0,0.0,65,0.00,,,0.00,32767.00,ALWS 1.0-beta,2013-01-04 11:43:00,
2013-01-04 04:48:00,4.2,-4.9,30.78,East,95,0.0,0.0,65,0.00,,,0.00,32767.00,ALWS 1.0-beta,2013-01-04 11:48:00,
2013-01-04 04:53:00,3.6,-5.5,30.78,East,95,0.0,0.0,65,0.00,,,0.00,32767.00,ALWS 1.0-beta,2013-01-04 11:53:00,
2013-01-04 04:58:00,3.6,-5.2,30.78,East,95,0.0,0.0,66,0.00,,,0.00,32767.00,ALWS 1.0-beta,2013-01-04 11:58:00,
2013-01-04 05:03:00,3.7,-4.8,30.78,East,95,0.0,0.0,67,0.00,,,0.00,32767.00,ALWS 1.0-beta,2013-01-04 12:03:00,
2013-01-04 05:08:00,3.7,-4.8,30.78,East,95,0.0,0.0,67,0.00,,,0.00,32767.00,ALWS 1.0-beta,2013-01-04 12:08:00,
2013-01-04 05:13:00,3.6,-4.9,30.78,East,95,2.0,3.0,67,0.00,,,0.00,32767.00,ALWS 1.0-beta,2013-01-04 12:13:00,
2013-01-04 05:18:00,4.1,-4.1,30.78,East,95,0.0,1.0,68,0.00,,,0.00,32767.00,ALWS 1.0-beta,2013-01-04 12:18:00,
2013-01-04 05:23:00,4.2,-4.0,30.77,East,95,0.0,0.0,68,0.00,,,0.00,32767.00,ALWS 1.0-beta,2013-01-04 12:23:00,
2013-01-04 05:28:00,4.7,-3.5,30.77,East,95,0.0,0.0,68,0.00,,,0.00,32767.00,ALWS 1.0-beta,2013-01-04 12:28:00,
2013-01-04 05:33:00,5.1,-3.1,30.77,East,95,0.0,0.0,68,0.00,,,0.00,32767.00,ALWS 1.0-beta,2013-01-04 12:33:00,
2013-01-04 05:38:00,5.1,-3.1,30.77,East,95,0.0,0.0,68,0.00,,,0.00,32767.00,ALWS 1.0-beta,2013-01-04 12:38:00,
2013-01-04 05:43:00,5.0,-3.5,30.77,East,95,0.0,0.0,67,0.00,,,0.00,32767.00,ALWS 1.0-beta,2013-01-04 12:43:00,
2013-01-04 05:48:00,4.9,-3.6,30.77,East,95,0.0,0.0,67,0.00,,,0.00,32767.00,ALWS 1.0-beta,2013-01-04 12:48:00,
2013-01-04 05:53:00,4.3,-4.2,30.77,East,95,0.0,0.0,67,0.00,,,0.00,32767.00,ALWS 1.0-beta,2013-01-04 12:53:00,
2013-01-04 05:58:00,3.5,-5.0,30.77,East,95,0.0,0.0,67,0.00,,,0.00,32767.00,ALWS 1.0-beta,2013-01-04 12:58:00,
2013-01-04 06:03:00,3.2,-5.0,30.77,East,95,0.0,0.0,68,0.00,,,0.00,32767.00,ALWS 1.0-beta,2013-01-04 13:03:00,
2013-01-04 06:08:00,3.1,-5.1,30.77,East,95,0.0,0.0,68,0.00,,,0.00,32767.00,ALWS 1.0-beta,2013-01-04 13:08:00,
2013-01-04 06:13:00,3.3,-4.6,30.77,East,95,0.0,0.0,69,0.00,,,0.00,32767.00,ALWS 1.0-beta,2013-01-04 13:13:00,
2013-01-04 06:18:00,3.6,-4.3,30.77,East,95,0.0,0.0,69,0.00,,,0.00,32767.00,ALWS 1.0-beta,2013-01-04 13:18:00,
2013-01-04 06:23:00,4.4,-3.2,30.77,East,96,0.0,1.0,70,0.00,,,0.00,32767.00,ALWS 1.0-beta,2013-01-04 13:23:00,
2013-01-04 06:28:00,4.8,-3.1,30.77,East,95,0.0,0.0,69,0.00,,,0.00,32767.00,ALWS 1.0-beta,2013-01-04 13:28:00,
2013-01-04 06:33:00,4.5,-3.7,30.77,East,95,0.0,0.0,68,0.00,,,0.00,32767.00,ALWS 1.0-beta,2013-01-04 13:33:00,
2013-01-04 06:38:00,4.2,-4.0,30.77,East,95,0.0,0.0,68,0.00,,,0.00,32767.00,ALWS 1.0-beta,2013-01-04 13:38:00,
2013-01-04 06:43:00,3.7,-4.5,30.77,East,95,0.0,0.0,68,0.00,,,0.00,32767.00,ALWS 1.0-beta,2013-01-04 13:43:00,
2013-01-04 06:48:00,3.1,-2.7,30.77,East,95,0.0,0.0,76,0.00,,,0.00,32767.00,ALWS 1.0-beta,2013-01-04 13:48:00,
2013-01-04 06:53:00,2.8,-5.3,30.77,East,95,0.0,0.0,68,0.00,,,0.00,32767.00,ALWS 1.0-beta,2013-01-04 13:53:00,
2013-01-04 06:58:00,2.6,-5.2,30.77,East,95,0.0,0.0,69,0.00,,,0.00,32767.00,ALWS 1.0-beta,2013-01-04 13:58:00,
2013-01-04 07:03:00,2.8,-5.1,30.77,East,96,0.0,0.0,69,0.00,,,0.00,32767.00,ALWS 1.0-beta,2013-01-04 14:03:00,
2013-01-04 07:08:00,2.8,-4.8,30.77,East,95,0.0,0.0,70,0.00,,,0.00,32767.00,ALWS 1.0-beta,2013-01-04 14:08:00,
2013-01-04 07:13:00,2.4,-5.4,30.77,East,95,0.0,0.0,69,0.00,,,0.00,32767.00,ALWS 1.0-beta,2013-01-04 14:13:00,
2013-01-04 07:18:00,2.7,-4.8,30.77,East,95,0.0,1.0,70,0.00,,,0.00,32767.00,ALWS 1.0-beta,2013-01-04 14:18:00,
2013-01-04 07:23:00,2.9,-4.7,30.77,East,95,0.0,0.0,70,0.00,,,0.00,32767.00,ALWS 1.0-beta,2013-01-04 14:23:00,
2013-01-04 07:28:00,3.1,-4.2,30.77,East,95,0.0,0.0,71,0.00,,,0.00,32767.00,ALWS 1.0-beta,2013-01-04 14:28:00,
2013-01-04 07:33:00,3.1,-4.2,30.77,East,96,0.0,0.0,71,0.00,,,0.00,32767.00,ALWS 1.0-beta,2013-01-04 14:33:00,
2013-01-04 07:38:00,3.0,-4.3,30.77,East,95,0.0,0.0,71,0.00,,,0.00,32767.00,ALWS 1.0-beta,2013-01-04 14:38:00,
2013-01-04 07:43:00,2.8,-4.8,30.77,East,95,0.0,0.0,70,0.00,,,0.00,32767.00,ALWS 1.0-beta,2013-01-04 14:43:00,
2013-01-04 07:48:00,2.7,-4.6,30.77,East,95,0.0,0.0,71,0.00,,,0.00,32767.00,ALWS 1.0-beta,2013-01-04 14:48:00,
2013-01-04 07:53:00,2.3,-4.9,30.77,East,95,0.0,0.0,71,0.00,,,0.00,32767.00,ALWS 1.0-beta,2013-01-04 14:53:00,
2013-01-04 07:58:00,1.7,-5.8,30.77,East,95,0.0,0.0,70,0.00,,,0.00,32767.00,ALWS 1.0-beta,2013-01-04 14:58:00,
2013-01-04 08:03:00,1.4,-6.1,30.77,East,95,0.0,0.0,70,0.00,,,0.00,32767.00,ALWS 1.0-beta,2013-01-04 15:03:00,
2013-01-04 08:08:00,1.4,-5.8,30.77,East,95,0.0,0.0,71,0.00,,,0.00,32767.00,ALWS 1.0-beta,2013-01-04 15:08:00,
2013-01-04 08:13:00,1.5,-5.7,30.78,East,95,0.0,0.0,71,0.00,,,0.00,32767.00,ALWS 1.0-beta,2013-01-04 15:13:00,
2013-01-04 08:18:00,2.0,-4.9,30.78,East,95,0.0,1.0,72,0.00,,,0.00,32767.00,ALWS 1.0-beta,2013-01-04 15:18:00,
2013-01-04 08:23:00,2.8,-3.9,30.78,East,95,0.0,0.0,73,0.00,,,0.00,32767.00,ALWS 1.0-beta,2013-01-04 15:23:00,
2013-01-04 08:28:00,3.0,-4.0,30.78,East,95,0.0,0.0,72,0.00,,,0.00,32767.00,ALWS 1.0-beta,2013-01-04 15:28:00,
2013-01-04 08:33:00,3.5,-3.5,30.78,East,95,0.0,0.0,72,0.00,,,0.00,32767.00,ALWS 1.0-beta,2013-01-04 15:33:00,
2013-01-04 08:38:00,4.1,-2.9,30.78,East,95,0.0,0.0,72,0.00,,,0.00,32767.00,ALWS 1.0-beta,2013-01-04 15:38:00,
2013-01-04 08:43:00,5.0,-2.0,30.78,East,95,0.0,0.0,72,0.00,,,0.00,32767.00,ALWS 1.0-beta,2013-01-04 15:43:00,
2013-01-04 08:48:00,5.6,-2.0,30.78,East,95,0.0,0.0,70,0.00,,,0.00,32767.00,ALWS 1.0-beta,2013-01-04 15:48:00,
2013-01-04 08:53:00,5.0,-2.9,30.78,East,96,0.0,2.0,69,0.00,,,0.00,32767.00,ALWS 1.0-beta,2013-01-04 15:53:00,
2013-01-04 08:58:00,5.5,-2.5,30.78,East,95,0.0,0.0,69,0.00,,,0.00,32767.00,ALWS 1.0-beta,2013-01-04 15:58:00,
2013-01-04 09:03:00,6.2,-1.8,30.78,East,95,0.0,0.0,69,0.00,,,0.00,32767.00,ALWS 1.0-beta,2013-01-04 16:03:00,
2013-01-04 09:08:00,7.1,-0.9,30.78,East,95,0.0,0.0,69,0.00,,,0.00,32767.00,ALWS 1.0-beta,2013-01-04 16:08:00,
2013-01-04 09:13:00,8.0,-0.4,30.78,East,95,0.0,1.0,68,0.00,,,0.00,32767.00,ALWS 1.0-beta,2013-01-04 16:13:00,
2013-01-04 09:18:00,8.4,-0.3,30.78,East,95,0.0,0.0,67,0.00,,,0.00,32767.00,ALWS 1.0-beta,2013-01-04 16:18:00,
2013-01-04 09:23:00,8.3,-0.7,30.78,East,95,0.0,1.0,66,0.00,,,0.00,32767.00,ALWS 1.0-beta,2013-01-04 16:23:00,
2013-01-04 09:28:00,7.7,-1.3,30.77,East,95,0.0,3.0,66,0.00,,,0.00,32767.00,ALWS 1.0-beta,2013-01-04 16:28:00,
2013-01-04 09:33:00,7.4,-1.6,30.78,East,95,0.0,3.0,66,0.00,,,0.00,32767.00,ALWS 1.0-beta,2013-01-04 16:33:00,
2013-01-04 09:38:00,7.3,-1.7,30.78,East,95,0.0,0.0,66,0.00,,,0.00,32767.00,ALWS 1.0-beta,2013-01-04 16:38:00,
2013-01-04 09:43:00,7.6,-1.0,30.77,East,95,0.0,0.0,67,0.00,,,0.00,32767.00,ALWS 1.0-beta,2013-01-04 16:43:00,
2013-01-04 09:48:00,8.3,-0.4,30.78,East,95,0.0,0.0,67,0.00,,,0.00,32767.00,ALWS 1.0-beta,2013-01-04 16:48:00,
2013-01-04 09:53:00,9.0,0.3,30.78,East,96,0.0,1.0,67,0.00,,,0.00,32767.00,ALWS 1.0-beta,2013-01-04 16:53:00,
2013-01-04 09:58:00,10.1,1.0,30.78,East,95,0.0,0.0,66,0.00,,,0.00,32767.00,ALWS 1.0-beta,2013-01-04 16:58:00,
2013-01-04 10:03:00,10.4,0.6,30.78,East,96,0.0,1.0,64,0.00,,,0.00,32767.00,ALWS 1.0-beta,2013-01-04 17:03:00,
2013-01-04 10:08:00,10.3,0.2,30.78,East,95,0.0,2.0,63,0.00,,,0.00,32767.00,ALWS 1.0-beta,2013-01-04 17:08:00,
2013-01-04 10:13:00,9.8,-0.3,30.78,East,95,2.0,2.0,63,0.00,,,0.00,32767.00,ALWS 1.0-beta,2013-01-04 17:13:00,
2013-01-04 10:18:00,10.1,0.4,30.78,East,96,1.0,2.0,64,0.00,,,0.00,32767.00,ALWS 1.0-beta,2013-01-04 17:18:00,
2013-01-04 10:23:00,11.1,1.3,30.78,East,95,0.0,1.0,64,0.00,,,0.00,32767.00,ALWS 1.0-beta,2013-01-04 17:23:00,
2013-01-04 10:28:00,12.3,2.1,30.78,East,95,0.0,0.0,63,0.00,,,0.00,32767.00,ALWS 1.0-beta,2013-01-04 17:28:00,
2013-01-04 10:33:00,13.6,3.0,30.77,East,95,0.0,0.0,62,0.00,,,0.00,32767.00,ALWS 1.0-beta,2013-01-04 17:33:00,
2013-01-04 10:38:00,14.2,2.5,30.77,East,95,0.0,0.0,59,0.00,,,0.00,32767.00,ALWS 1.0-beta,2013-01-04 17:38:00,
2013-01-04 10:43:00,13.7,1.7,30.77,East,95,0.0,0.0,58,0.00,,,0.00,32767.00,ALWS 1.0-beta,2013-01-04 17:43:00,
2013-01-04 10:48:00,13.8,1.8,30.77,East,95,0.0,0.0,58,0.00,,,0.00,32767.00,ALWS 1.0-beta,2013-01-04 17:48:00,
2013-01-04 10:53:00,15.0,3.3,30.77,East,95,0.0,1.0,59,0.00,,,0.00,32767.00,ALWS 1.0-beta,2013-01-04 17:53:00,
2013-01-04 10:58:00,15.4,3.3,30.76,East,95,0.0,1.0,58,0.00,,,0.00,32767.00,ALWS 1.0-beta,2013-01-04 17:58:00,
2013-01-04 11:03:00,15.5,3.0,30.76,East,96,0.0,1.0,57,0.00,,,0.00,32767.00,ALWS 1.0-beta,2013-01-04 18:03:00,
2013-01-04 11:08:00,15.1,3.0,30.76,East,96,0.0,2.0,58,0.00,,,0.00,32767.00,ALWS 1.0-beta,2013-01-04 18:08:00,
2013-01-04 11:13:00,15.6,3.1,30.76,East,95,0.0,0.0,57,0.00,,,0.00,32767.00,ALWS 1.0-beta,2013-01-04 18:13:00,
2013-01-04 11:18:00,16.0,3.5,30.76,East,95,0.0,0.0,57,0.00,,,0.00,32767.00,ALWS 1.0-beta,2013-01-04 18:18:00,
2013-01-04 11:23:00,16.8,3.8,30.75,East,95,0.0,1.0,56,0.00,,,0.00,32767.00,ALWS 1.0-beta,2013-01-04 18:23:00,
2013-01-04 11:27:00,17.7,4.7,30.75,East,95,0.0,1.0,56,0.00,,,0.00,32767.00,ALWS 1.0-beta,2013-01-04 18:27:00,
2013-01-04 11:32:00,18.8,4.5,30.75,East,95,0.0,0.0,53,0.00,,,0.00,32767.00,ALWS 1.0-beta,2013-01-04 18:32:00,
2013-01-04 11:37:00,19.5,4.8,30.74,East,95,0.0,0.0,52,0.00,,,0.00,32767.00,ALWS 1.0-beta,2013-01-04 18:37:00,
2013-01-04 11:42:00,18.8,3.2,30.74,East,96,0.0,2.0,50,0.00,,,0.00,32767.00,ALWS 1.0-beta,2013-01-04 18:42:00,
2013-01-04 11:47:00,18.6,3.1,30.74,East,95,0.0,0.0,50,0.00,,,0.00,32767.00,ALWS 1.0-beta,2013-01-04 18:47:00,
2013-01-04 11:52:00,19.0,3.0,30.74,East,96,0.0,1.0,49,0.00,,,0.00,32767.00,ALWS 1.0-beta,2013-01-04 18:52:00,
2013-01-04 11:57:00,18.9,3.3,30.73,East,96,0.0,0.0,50,0.00,,,0.00,32767.00,ALWS 1.0-beta,2013-01-04 18:57:00,
2013-01-04 12:02:00,19.2,4.1,30.73,East,95,0.0,0.0,51,0.00,,,0.00,32767.00,ALWS 1.0-beta,2013-01-04 19:02:00,
2013-01-04 12:07:00,20.5,5.3,30.72,East,95,0.0,0.0,51,0.00,,,0.00,32767.00,ALWS 1.0-beta,2013-01-04 19:07:00,
2013-01-04 12:12:00,21.4,5.7,30.72,East,95,1.0,3.0,50,0.00,,,0.00,32767.00,ALWS 1.0-beta,2013-01-04 19:12:00,
2013-01-04 12:17:00,21.0,5.7,30.72,East,95,0.0,0.0,51,0.00,,,0.00,32767.00,ALWS 1.0-beta,2013-01-04 19:17:00,
2013-01-04 12:22:00,21.0,6.2,30.72,East,95,4.0,4.0,52,0.00,,,0.00,32767.00,ALWS 1.0-beta,2013-01-04 19:22:00,
2013-01-04 12:27:00,19.0,3.4,30.72,North,5,4.0,5.0,50,0.00,,,0.00,32767.00,ALWS 1.0-beta,2013-01-04 19:27:00,
2013-01-04 12:32:00,17.6,3.4,30.71,North,5,2.0,3.0,53,0.00,,,0.00,32767.00,ALWS 1.0-beta,2013-01-04 19:32:00,
2013-01-04 12:37:00,17.6,4.6,30.71,North,360,0.0,0.0,56,0.00,,,0.00,32767.00,ALWS 1.0-beta,2013-01-04 19:37:00,
2013-01-04 12:42:00,18.7,4.8,30.70,North,5,2.0,2.0,54,0.00,,,0.00,32767.00,ALWS 1.0-beta,2013-01-04 19:42:00,
2013-01-04 12:47:00,19.5,5.2,30.70,North,5,1.0,3.0,53,0.00,,,0.00,32767.00,ALWS 1.0-beta,2013-01-04 19:47:00,
2013-01-04 12:52:00,20.7,5.9,30.69,North,5,2.0,3.0,52,0.00,,,0.00,32767.00,ALWS 1.0-beta,2013-01-04 19:52:00,
2013-01-04 12:57:00,22.3,6.9,30.69,North,5,0.0,1.0,51,0.00,,,0.00,32767.00,ALWS 1.0-beta,2013-01-04 19:57:00,
2013-01-04 13:02:00,23.3,6.5,30.69,North,360,3.0,3.0,48,0.00,,,0.00,32767.00,ALWS 1.0-beta,2013-01-04 20:02:00,
2013-01-04 13:07:00,23.1,6.3,30.68,North,360,2.0,3.0,48,0.00,,,0.00,32767.00,ALWS 1.0-beta,2013-01-04 20:07:00,
2013-01-04 13:12:00,22.9,6.2,30.68,North,5,0.0,2.0,48,0.00,,,0.00,32767.00,ALWS 1.0-beta,2013-01-04 20:12:00,
2013-01-04 13:17:00,22.7,6.4,30.68,North,5,1.0,3.0,49,0.00,,,0.00,32767.00,ALWS 1.0-beta,2013-01-04 20:17:00,
2013-01-04 13:22:00,22.2,6.8,30.68,North,5,0.0,2.0,51,0.00,,,0.00,32767.00,ALWS 1.0-beta,2013-01-04 20:22:00,
2013-01-04 13:27:00,22.5,8.0,30.68,North,5,3.0,4.0,53,0.00,,,0.00,32767.00,ALWS 1.0-beta,2013-01-04 20:27:00,
2013-01-04 13:32:00,22.7,7.3,30.68,North,5,0.0,1.0,51,0.00,,,0.00,32767.00,ALWS 1.0-beta,2013-01-04 20:32:00,
2013-01-04 13:37:00,23.2,7.3,30.68,North,5,0.0,0.0,50,0.00,,,0.00,32767.00,ALWS 1.0-beta,2013-01-04 20:37:00,
2013-01-04 13:42:00,23.7,6.9,30.68,North,360,0.0,2.0,48,0.00,,,0.00,32767.00,ALWS 1.0-beta,2013-01-04 20:42:00,
2013-01-04 13:47:00,23.9,7.5,30.68,North,5,0.0,0.0,49,0.00,,,0.00,32767.00,ALWS 1.0-beta,2013-01-04 20:47:00,
2013-01-04 13:52:00,24.9,8.0,30.67,North,5,0.0,1.0,48,0.00,,,0.00,32767.00,ALWS 1.0-beta,2013-01-04 20:52:00,
2013-01-04 13:57:00,25.4,7.0,30.67,North,5,0.0,1.0,45,0.00,,,0.00,32767.00,ALWS 1.0-beta,2013-01-04 20:57:00,
2013-01-04 14:02:00,25.5,7.6,30.67,North,5,1.0,2.0,46,0.00,,,0.00,32767.00,ALWS 1.0-beta,2013-01-04 21:02:00,
2013-01-04 14:07:00,25.7,5.8,30.66,North,5,0.0,0.0,42,0.00,,,0.00,32767.00,ALWS 1.0-beta,2013-01-04 21:07:00,
2013-01-04 14:12:00,26.5,6.5,30.66,North,5,1.0,1.0,42,0.00,,,0.00,32767.00,ALWS 1.0-beta,2013-01-04 21:12:00,
2013-01-04 14:17:00,27.5,7.4,30.66,North,360,0.0,1.0,42,0.00,,,0.00,32767.00,ALWS 1.0-beta,2013-01-04 21:17:00,
2013-01-04 14:22:00,27.9,7.8,30.65,North,5,1.0,2.0,42,0.00,,,0.00,32767.00,ALWS 1.0-beta,2013-01-04 21:22:00,
2013-01-04 14:27:00,27.0,7.5,30.65,SW,234,6.0,7.0,43,0.00,,,0.00,32767.00,ALWS 1.0-beta,2013-01-04 21:27:00,
2013-01-04 14:32:00,24.7,7.8,30.65,SW,232,3.0,5.0,48,0.00,,,0.00,32767.00,ALWS 1.0-beta,2013-01-04 21:32:00,
2013-01-04 14:37:00,24.5,7.6,30.65,SW,232,2.0,3.0,48,0.00,,,0.00,32767.00,ALWS 1.0-beta,2013-01-04 21:37:00,
2013-01-04 14:42:00,25.0,6.2,30.66,SW,232,2.0,3.0,44,0.00,,,0.00,32767.00,ALWS 1.0-beta,2013-01-04 21:42:00,
2013-01-04 14:47:00,25.8,6.4,30.66,SW,232,0.0,0.0,43,0.00,,,0.00,32767.00,ALWS 1.0-beta,2013-01-04 21:47:00,
2013-01-04 14:52:00,27.0,5.3,30.66,SW,232,0.0,0.0,39,0.00,,,0.00,32767.00,ALWS 1.0-beta,2013-01-04 21:52:00,
2013-01-04 14:57:00,28.0,5.7,30.65,SW,232,2.0,3.0,38,0.00,,,0.00,32767.00,ALWS 1.0-beta,2013-01-04 21:57:00,
2013-01-04 15:02:00,27.2,6.6,30.65,SW,232,3.0,3.0,41,0.00,,,0.00,32767.00,ALWS 1.0-beta,2013-01-04 22:02:00,
2013-01-04 15:07:00,26.1,6.2,30.65,SW,232,2.0,3.0,42,0.00,,,0.00,32767.00,ALWS 1.0-beta,2013-01-04 22:07:00,
2013-01-04 15:12:00,25.8,4.8,30.65,SW,232,0.0,0.0,40,0.00,,,0.00,32767.00,ALWS 1.0-beta,2013-01-04 22:12:00,
2013-01-04 15:17:00,26.1,5.1,30.65,SW,232,0.0,0.0,40,0.00,,,0.00,32767.00,ALWS 1.0-beta,2013-01-04 22:17:00,
2013-01-04 15:22:00,26.4,5.4,30.66,SW,232,0.0,2.0,40,0.00,,,0.00,32767.00,ALWS 1.0-beta,2013-01-04 22:22:00,
2013-01-04 15:27:00,26.8,5.7,30.65,SW,232,0.0,0.0,40,0.00,,,0.00,32767.00,ALWS 1.0-beta,2013-01-04 22:27:00,
2013-01-04 15:32:00,27.3,6.7,30.65,SW,232,0.0,0.0,41,0.00,,,0.00,32767.00,ALWS 1.0-beta,2013-01-04 22:32:00,
2013-01-04 15:37:00,27.6,6.4,30.65,SW,232,0.0,0.0,40,0.00,,,0.00,32767.00,ALWS 1.0-beta,2013-01-04 22:37:00,
2013-01-04 15:42:00,28.1,5.2,30.66,SW,232,0.0,0.0,37,0.00,,,0.00,32767.00,ALWS 1.0-beta,2013-01-04 22:42:00,
2013-01-04 15:47:00,29.0,7.2,30.66,SW,232,1.0,2.0,39,0.00,,,0.00,32767.00,ALWS 1.0-beta,2013-01-04 22:47:00,
2013-01-04 15:52:00,29.2,6.8,30.66,SW,232,0.0,1.0,38,0.00,,,0.00,32767.00,ALWS 1.0-beta,2013-01-04 22:52:00,
2013-01-04 15:57:00,29.6,9.9,30.66,SW,232,0.0,0.0,43,0.00,,,0.00,32767.00,ALWS 1.0-beta,2013-01-04 22:57:00,
2013-01-04 16:02:00,30.0,8.6,30.66,SW,232,0.0,0.0,40,0.00,,,0.00,32767.00,ALWS 1.0-beta,2013-01-04 23:02:00,
2013-01-04 16:07:00,30.3,8.9,30.66,SW,232,0.0,0.0,40,0.00,,,0.00,32767.00,ALWS 1.0-beta,2013-01-04 23:07:00,
2013-01-04 16:12:00,30.1,8.1,30.66,SW,232,0.0,0.0,39,0.00,,,0.00,32767.00,ALWS 1.0-beta,2013-01-04 23:12:00,
2013-01-04 16:17:00,29.2,6.8,30.66,SW,232,5.0,5.0,38,0.00,,,0.00,32767.00,ALWS 1.0-beta,2013-01-04 23:17:00,
2013-01-04 16:22:00,26.0,6.1,30.66,SW,232,3.0,5.0,42,0.00,,,0.00,32767.00,ALWS 1.0-beta,2013-01-04 23:22:00,
2013-01-04 16:27:00,23.9,5.7,30.66,SW,232,2.0,3.0,45,0.00,,,0.00,32767.00,ALWS 1.0-beta,2013-01-04 23:27:00,
2013-01-04 16:32:00,22.8,5.6,30.66,SW,232,3.0,4.0,47,0.00,,,0.00,32767.00,ALWS 1.0-beta,2013-01-04 23:32:00,
2013-01-04 16:37:00,22.2,5.5,30.66,SW,232,0.0,3.0,48,0.00,,,0.00,32767.00,ALWS 1.0-beta,2013-01-04 23:37:00,
2013-01-04 16:42:00,22.0,5.3,30.66,SW,232,2.0,2.0,48,0.00,,,0.00,32767.00,ALWS 1.0-beta,2013-01-04 23:42:00,
2013-01-04 16:47:00,21.7,5.9,30.66,SW,232,2.0,3.0,50,0.00,,,0.00,32767.00,ALWS 1.0-beta,2013-01-04 23:47:00,
2013-01-04 16:52:00,21.5,5.8,30.66,SW,232,0.0,2.0,50,0.00,,,0.00,32767.00,ALWS 1.0-beta,2013-01-04 23:52:00,
2013-01-04 16:57:00,21.5,5.3,30.66,SW,232,2.0,3.0,49,0.00,,,0.00,32767.00,ALWS 1.0-beta,2013-01-04 23:57:00,
2013-01-04 17:02:00,21.3,5.1,30.66,SW,232,2.0,4.0,49,0.00,,,0.00,32767.00,ALWS 1.0-beta,2013-01-05 00:02:00,
2013-01-04 17:07:00,21.2,5.0,30.66,SW,232,0.0,0.0,49,0.00,,,0.00,32767.00,ALWS 1.0-beta,2013-01-05 00:07:00,
2013-01-04 17:12:00,21.0,5.3,30.66,SW,232,0.0,1.0,50,0.00,,,0.00,32767.00,ALWS 1.0-beta,2013-01-05 00:12:00,
2013-01-04 17:17:00,19.8,5.0,30.66,SW,232,0.0,0.0,52,0.00,,,0.00,32767.00,ALWS 1.0-beta,2013-01-05 00:17:00,
2013-01-04 17:22:00,19.6,5.3,30.67,SW,232,0.0,0.0,53,0.00,,,0.00,32767.00,ALWS 1.0-beta,2013-01-05 00:22:00,
2013-01-04 17:27:00,19.1,5.2,30.67,SW,232,0.0,0.0,54,0.00,,,0.00,32767.00,ALWS 1.0-beta,2013-01-05 00:27:00,
2013-01-04 17:32:00,18.6,5.1,30.67,SW,232,0.0,1.0,55,0.00,,,0.00,32767.00,ALWS 1.0-beta,2013-01-05 00:32:00,
2013-01-04 17:37:00,18.4,4.9,30.67,SW,232,0.0,0.0,55,0.00,,,0.00,32767.00,ALWS 1.0-beta,2013-01-05 00:37:00,
2013-01-04 17:42:00,18.2,5.2,30.67,SW,232,0.0,1.0,56,0.00,,,0.00,32767.00,ALWS 1.0-beta,2013-01-05 00:42:00,
2013-01-04 17:47:00,18.6,5.1,30.67,SW,232,0.0,1.0,55,0.00,,,0.00,32767.00,ALWS 1.0-beta,2013-01-05 00:47:00,
2013-01-04 17:52:00,18.6,5.1,30.67,SW,232,0.0,0.0,55,0.00,,,0.00,32767.00,ALWS 1.0-beta,2013-01-05 00:52:00,
2013-01-04 17:57:00,18.3,4.8,30.66,SW,232,0.0,0.0,55,0.00,,,0.00,32767.00,ALWS 1.0-beta,2013-01-05 00:57:00,
2013-01-04 18:02:00,17.7,4.3,30.66,SW,232,0.0,0.0,55,0.00,,,0.00,32767.00,ALWS 1.0-beta,2013-01-05 01:02:00,
2013-01-04 18:07:00,17.6,4.6,30.67,SW,232,0.0,0.0,56,0.00,,,0.00,32767.00,ALWS 1.0-beta,2013-01-05 01:07:00,
2013-01-04 18:12:00,16.8,3.0,30.67,SW,232,0.0,0.0,54,0.00,,,0.00,32767.00,ALWS 1.0-beta,2013-01-05 01:12:00,
2013-01-04 18:17:00,16.2,3.3,30.67,SW,232,0.0,0.0,56,0.00,,,0.00,32767.00,ALWS 1.0-beta,2013-01-05 01:17:00,
2013-01-04 18:22:00,16.3,3.8,30.67,SW,232,0.0,0.0,57,0.00,,,0.00,32767.00,ALWS 1.0-beta,2013-01-05 01:22:00,
2013-01-04 18:27:00,16.4,3.8,30.67,SW,232,0.0,0.0,57,0.00,,,0.00,32767.00,ALWS 1.0-beta,2013-01-05 01:27:00,
2013-01-04 18:32:00,16.1,3.6,30.68,SW,232,0.0,0.0,57,0.00,,,0.00,32767.00,ALWS 1.0-beta,2013-01-05 01:32:00,
2013-01-04 18:37:00,15.9,3.8,30.68,SW,232,0.0,2.0,58,0.00,,,0.00,32767.00,ALWS 1.0-beta,2013-01-05 01:37:00,
2013-01-04 18:42:00,16.4,4.2,30.68,SW,232,0.0,0.0,58,0.00,,,0.00,32767.00,ALWS 1.0-beta,2013-01-05 01:42:00,
2013-01-04 18:47:00,16.8,4.2,30.68,SW,232,0.0,0.0,57,0.00,,,0.00,32767.00,ALWS 1.0-beta,2013-01-05 01:47:00,
2013-01-04 18:52:00,16.6,4.0,30.68,SW,232,2.0,2.0,57,0.00,,,0.00,32767.00,ALWS 1.0-beta,2013-01-05 01:52:00,
2013-01-04 18:57:00,16.2,3.7,30.68,SW,231,4.0,4.0,57,0.00,,,0.00,32767.00,ALWS 1.0-beta,2013-01-05 01:57:00,
2013-01-04 19:02:00,16.3,4.1,30.68,SW,230,4.0,4.0,58,0.00,,,0.00,32767.00,ALWS 1.0-beta,2013-01-05 02:02:00,
2013-01-04 19:07:00,16.3,4.1,30.68,SW,230,3.0,3.0,58,0.00,,,0.00,32767.00,ALWS 1.0-beta,2013-01-05 02:07:00,
2013-01-04 19:12:00,16.8,4.2,30.69,SW,230,0.0,2.0,57,0.00,,,0.00,32767.00,ALWS 1.0-beta,2013-01-05 02:12:00,
2013-01-04 19:17:00,16.5,3.5,30.69,SW,230,0.0,3.0,56,0.00,,,0.00,32767.00,ALWS 1.0-beta,2013-01-05 02:17:00,
2013-01-04 19:22:00,16.0,3.1,30.69,SW,230,0.0,0.0,56,0.00,,,0.00,32767.00,ALWS 1.0-beta,2013-01-05 02:22:00,
2013-01-04 19:27:00,15.8,3.3,30.69,SSW,204,0.0,0.0,57,0.00,,,0.00,32767.00,ALWS 1.0-beta,2013-01-05 02:27:00,
2013-01-04 19:32:00,15.2,2.7,30.69,SSW,204,1.0,1.0,57,0.00,,,0.00,32767.00,ALWS 1.0-beta,2013-01-05 02:32:00,
2013-01-04 19:37:00,15.2,2.7,30.69,SSW,205,0.0,0.0,57,0.00,,,0.00,32767.00,ALWS 1.0-beta,2013-01-05 02:37:00,
2013-01-04 19:42:00,13.8,1.4,30.69,SW,223,4.0,4.0,57,0.00,,,0.00,32767.00,ALWS 1.0-beta,2013-01-05 02:42:00,
2013-01-04 19:47:00,13.1,1.5,30.69,SW,223,0.0,2.0,59,0.00,,,0.00,32767.00,ALWS 1.0-beta,2013-01-05 02:47:00,
2013-01-04 19:52:00,12.6,1.4,30.70,SW,223,0.0,0.0,60,0.00,,,0.00,32767.00,ALWS 1.0-beta,2013-01-05 02:52:00,
2013-01-04 19:57:00,12.5,1.6,30.70,SW,223,0.0,0.0,61,0.00,,,0.00,32767.00,ALWS 1.0-beta,2013-01-05 02:57:00,
2013-01-04 20:02:00,12.6,2.1,30.70,SW,224,0.0,0.0,62,0.00,,,0.00,32767.00,ALWS 1.0-beta,2013-01-05 03:02:00,
2013-01-04 20:07:00,13.0,2.8,30.69,SW,223,0.0,0.0,63,0.00,,,0.00,32767.00,ALWS 1.0-beta,2013-01-05 03:07:00,
2013-01-04 20:12:00,13.0,2.4,30.69,SW,223,0.0,0.0,62,0.00,,,0.00,32767.00,ALWS 1.0-beta,2013-01-05 03:12:00,
2013-01-04 20:17:00,12.8,2.6,30.69,SW,223,0.0,0.0,63,0.00,,,0.00,32767.00,ALWS 1.0-beta,2013-01-05 03:17:00,
2013-01-04 20:22:00,12.8,2.6,30.70,SW,223,0.0,1.0,63,0.00,,,0.00,32767.00,ALWS 1.0-beta,2013-01-05 03:22:00,
2013-01-04 20:27:00,12.6,2.4,30.70,SW,223,0.0,0.0,63,0.00,,,0.00,32767.00,ALWS 1.0-beta,2013-01-05 03:27:00,
2013-01-04 20:32:00,12.7,2.8,30.70,SW,223,0.0,0.0,64,0.00,,,0.00,32767.00,ALWS 1.0-beta,2013-01-05 03:32:00,
2013-01-04 20:37:00,12.2,2.0,30.70,SW,223,0.0,0.0,63,0.00,,,0.00,32767.00,ALWS 1.0-beta,2013-01-05 03:37:00,
2013-01-04 20:42:00,11.6,1.5,30.70,SSW,210,0.0,0.0,63,0.00,,,0.00,32767.00,ALWS 1.0-beta,2013-01-05 03:42:00,
2013-01-04 20:47:00,11.1,1.3,30.70,SSW,210,0.0,0.0,64,0.00,,,0.00,32767.00,ALWS 1.0-beta,2013-01-05 03:47:00,
2013-01-04 20:52:00,11.1,1.6,30.70,SSW,211,0.0,0.0,65,0.00,,,0.00,32767.00,ALWS 1.0-beta,2013-01-05 03:52:00,
2013-01-04 20:57:00,11.2,1.7,30.70,SSW,210,2.0,2.0,65,0.00,,,0.00,32767.00,ALWS 1.0-beta,2013-01-05 03:57:00,
2013-01-04 21:02:00,10.8,1.0,30.70,SSW,210,4.0,4.0,64,0.00,,,0.00,32767.00,ALWS 1.0-beta,2013-01-05 04:02:00,
2013-01-04 21:07:00,10.6,1.2,30.70,SSW,211,0.0,0.0,65,0.00,,,0.00,32767.00,ALWS 1.0-beta,2013-01-05 04:07:00,
2013-01-04 21:12:00,10.5,1.1,30.70,SSW,211,0.0,0.0,65,0.00,,,0.00,32767.00,ALWS 1.0-beta,2013-01-05 04:12:00,
2013-01-04 21:17:00,11.5,2.4,30.70,SE,143,0.0,2.0,66,0.00,,,0.00,32767.00,ALWS 1.0-beta,2013-01-05 04:17:00,
2013-01-04 21:22:00,11.6,1.8,30.70,SE,143,0.0,2.0,64,0.00,,,0.00,32767.00,ALWS 1.0-beta,2013-01-05 04:22:00,
2013-01-04 21:27:00,10.9,0.8,30.70,SE,143,0.0,0.0,63,0.00,,,0.00,32767.00,ALWS 1.0-beta,2013-01-05 04:27:00,
2013-01-04 21:32:00,11.2,1.7,30.70,SE,142,0.0,0.0,65,0.00,,,0.00,32767.00,ALWS 1.0-beta,2013-01-05 04:32:00,
2013-01-04 21:37:00,11.6,1.8,30.70,SE,143,0.0,0.0,64,0.00,,,0.00,32767.00,ALWS 1.0-beta,2013-01-05 04:37:00,
2013-01-04 21:42:00,11.9,1.7,30.70,SE,143,0.0,0.0,63,0.00,,,0.00,32767.00,ALWS 1.0-beta,2013-01-05 04:42:00,
2013-01-04 21:47:00,11.8,1.6,30.70,SE,143,0.0,0.0,63,0.00,,,0.00,32767.00,ALWS 1.0-beta,2013-01-05 04:47:00,
2013-01-04 21:52:00,11.6,1.5,30.70,SE,143,0.0,0.0,63,0.00,,,0.00,32767.00,ALWS 1.0-beta,2013-01-05 04:52:00,
2013-01-04 21:57:00,11.9,1.7,30.70,SE,142,0.0,0.0,63,0.00,,,0.00,32767.00,ALWS 1.0-beta,2013-01-05 04:57:00,
2013-01-04 22:00:00,12.2,2.0,30.70,SE,143,0.0,0.0,63,0.00,,,0.00,32767.00,ALWS 1.0-beta,2013-01-05 05:00:00,
2013-01-04 22:01:00,12.2,2.0,30.70,SE,143,0.0,0.0,63,0.00,,,0.00,32767.00,ALWS 1.0-beta,2013-01-05 05:01:00,
2013-01-04 22:06:00,11.7,1.2,30.70,SE,143,0.0,0.0,62,0.00,,,0.00,32767.00,ALWS 1.0-beta,2013-01-05 05:06:00,
2013-01-04 22:11:00,12.2,1.7,30.70,SE,143,0.0,0.0,62,0.00,,,0.00,32767.00,ALWS 1.0-beta,2013-01-05 05:11:00,
2013-01-04 22:16:00,12.1,1.2,30.70,SE,143,0.0,0.0,61,0.00,,,0.00,32767.00,ALWS 1.0-beta,2013-01-05 05:16:00,
2013-01-04 22:21:00,11.6,0.8,30.70,SE,144,0.0,0.0,61,0.00,,,0.00,32767.00,ALWS 1.0-beta,2013-01-05 05:21:00,
2013-01-04 22:26:00,11.2,0.4,30.71,SE,143,0.0,0.0,61,0.00,,,0.00,32767.00,ALWS 1.0-beta,2013-01-05 05:26:00,
2013-01-04 22:31:00,10.5,-0.3,30.71,SE,143,0.0,0.0,61,0.00,,,0.00,32767.00,ALWS 1.0-beta,2013-01-05 05:31:00,
2013-01-04 22:36:00,10.0,-0.4,30.71,SE,143,0.0,0.0,62,0.00,,,0.00,32767.00,ALWS 1.0-beta,2013-01-05 05:36:00,
2013-01-04 22:41:00,9.5,-0.5,30.71,SE,143,0.0,0.0,63,0.00,,,0.00,32767.00,ALWS 1.0-beta,2013-01-05 05:41:00,
2013-01-04 22:46:00,9.6,-0.1,30.71,SE,143,0.0,0.0,64,0.00,,,0.00,32767.00,ALWS 1.0-beta,2013-01-05 05:46:00,
2013-01-04 22:51:00,9.9,0.2,30.71,SE,143,0.0,0.0,64,0.00,,,0.00,32767.00,ALWS 1.0-beta,2013-01-05 05:51:00,
2013-01-04 22:56:00,10.3,0.9,30.71,SE,143,0.0,0.0,65,0.00,,,0.00,32767.00,ALWS 1.0-beta,2013-01-05 05:56:00,
2013-01-04 23:01:00,10.8,1.4,30.71,SE,142,0.0,0.0,65,0.00,,,0.00,32767.00,ALWS 1.0-beta,2013-01-05 06:01:00,
2013-01-04 23:06:00,10.9,1.1,30.71,SE,143,0.0,0.0,64,0.00,,,0.00,32767.00,ALWS 1.0-beta,2013-01-05 06:06:00,
2013-01-04 23:11:00,10.9,1.1,30.71,SE,143,0.0,0.0,64,0.00,,,0.00,32767.00,ALWS 1.0-beta,2013-01-05 06:11:00,
2013-01-04 23:16:00,10.9,1.1,30.71,SE,143,0.0,0.0,64,0.00,,,0.00,32767.00,ALWS 1.0-beta,2013-01-05 06:16:00,
2013-01-04 23:21:00,11.1,1.0,30.71,SE,143,0.0,0.0,63,0.00,,,0.00,32767.00,ALWS 1.0-beta,2013-01-05 06:21:00,
2013-01-04 23:26:00,11.3,1.2,30.71,SE,144,0.0,0.0,63,0.00,,,0.00,32767.00,ALWS 1.0-beta,2013-01-05 06:26:00,
2013-01-04 23:31:00,11.2,0.7,30.71,SE,143,0.0,0.0,62,0.00,,,0.00,32767.00,ALWS 1.0-beta,2013-01-05 06:31:00,
2013-01-04 23:36:00,11.0,0.5,30.71,SE,143,0.0,0.0,62,0.00,,,0.00,32767.00,ALWS 1.0-beta,2013-01-05 06:36:00,
2013-01-04 23:41:00,10.4,-0.4,30.71,SE,143,0.0,0.0,61,0.00,,,0.00,32767.00,ALWS 1.0-beta,2013-01-05 06:41:00,
2013-01-04 23:46:00,9.6,-0.8,30.71,SE,143,0.0,0.0,62,0.00,,,0.00,32767.00,ALWS 1.0-beta,2013-01-05 06:46:00,
2013-01-04 23:51:00,9.5,-0.5,30.71,SE,143,0.0,3.0,63,0.00,,,0.00,32767.00,ALWS 1.0-beta,2013-01-05 06:51:00,
2013-01-04 23:56:00,9.2,-0.8,30.71,SE,144,0.0,0.0,63,0.00,,,0.00,32767.00,ALWS 1.0-beta,2013-01-05 06:56:00,